Wind_Speed
24 23 22 22 22 23 22 20 19 17 15 13 12 11 11 11 11 11 11 12 14 15 17 18 19 19 18 17 16 15 14 13 11 11 11 11 11 11 12 12 11 11
24 24 23 23 23 24 23 22 21 19 17 15 15 14 14 13 13 12 12 13 14 15 16 18 19 19 18 17 16 15 14 13 12 11 11 11 11 12 12 12 11 10
25 25 24 24 24 24 24 24 22 20 19 18 17 16 16 16 15 14 14 14 15 15 16 18 20 19 18 17 16 16 15 14 13 12 12 12 12 12 13 12 10 10
26 26 26 26 26 26 26 26 24 23 22 21 20 19 19 18 17 16 15 15 15 16 17 19 20 20 19 17 16 16 16 15 14 13 13 13 13 13 13 12 10 10
28 28 28 29 29 29 28 28 27 26 25 24 23 22 21 20 18 17 17 16 16 16 17 19 21 21 19 18 17 16 16 15 14 13 13 13 13 13 13 12 10 10
29 29 30 31 32 31 30 30 30 29 28 27 26 25 23 22 20 18 17 17 17 17 17 19 22 22 20 18 17 17 16 16 15 14 13 12 13 13 13 12 11 11
28 30 31 33 33 33 33 33 33 32 31 29 28 27 25 24 22 20 19 19 20 19 18 20 22 22 20 19 18 17 17 16 15 14 13 12 12 12 13 13 12 12
28 30 32 33 34 35 35 36 36 34 33 31 29 28 27 26 25 23 22 23 23 22 21 21 22 22 21 19 18 18 17 15 14 14 13 12 12 12 13 13 12 13
29 30 31 32 33 34 36 38 38 36 35 32 31 31 30 28 28 28 27 26 25 24 22 21 22 22 21 19 18 18 17 15 13 13 12 11 11 12 13 13 13 14
28 30 31 32 32 33 36 39 40 38 36 34 32 32 32 32 32 33 32 30 28 25 23 22 22 23 22 20 19 18 16 13 12 11 11 11 11 12 13 14 15 15
28 30 31 32 31 31 33 37 40 39 37 37 37 37 38 37 36 37 36 33 30 27 24 23 22 23 24 22 20 18 14 12 11 10 11 12 13 14 15 15 16 17
30 31 31 30 31 32 32 35 39 37 34 34 36 40 44 42 37 36 38 36 32 29 26 24 22 23 24 22 20 17 15 12 11 11 11 13 14 15 17 17 18 18
31 31 31 31 32 33 34 36 38 38 35 32 32 36 43 44 38 35 38 39 35 30 27 24 22 22 23 22 19 18 16 13 12 12 13 14 15 16 18 19 19 20
30 31 32 32 33 34 36 36 36 35 35 34 34 35 39 41 38 35 37 38 36 32 27 25 24 24 24 22 20 18 16 13 13 13 14 16 17 18 19 20 21 22
28 30 32 33 35 36 37 38 34 32 32 34 36 37 38 39 38 36 36 37 35 32 28 27 26 24 22 22 20 19 16 14 14 15 16 18 19 20 21 22 23 25
28 30 30 32 34 35 35 36 33 30 30 32 35 37 37 39 39 36 35 37 36 32 30 29 26 22 20 21 20 18 16 15 16 17 19 20 22 23 24 24 25 27
31 31 30 29 30 31 31 32 30 28 26 27 31 35 36 38 39 37 36 38 37 33 32 30 25 20 20 21 20 18 16 17 18 19 21 22 24 25 26 26 27 28
32 32 30 29 29 30 30 29 30 30 28 26 28 31 34 36 38 37 37 38 38 35 32 29 25 22 23 22 20 19 18 19 20 21 23 24 26 28 28 29 30 30
32 31 30 29 30 30 28 28 30 31 30 28 26 28 31 34 36 37 36 36 38 37 33 29 26 25 25 22 20 19 19 21 22 23 24 26 28 30 30 31 32 32
28 28 28 27 28 29 28 28 30 30 29 28 28 29 31 33 36 38 36 34 36 37 34 29 27 27 25 21 19 19 20 23 24 25 26 27 29 30 31 32 33 34
25 26 26 26 27 28 29 28 29 29 29 28 29 31 32 34 37 38 35 32 36 37 33 29 27 27 25 21 19 20 22 25 26 26 27 28 29 30 32 33 34 35
24 26 26 27 28 29 30 29 29 29 29 29 29 30 33 35 37 38 34 32 36 37 32 27 28 28 25 21 20 22 25 27 27 27 28 30 30 31 32 34 34 34
23 25 26 28 29 30 30 30 30 30 31 30 28 30 34 35 35 37 33 32 36 36 30 27 28 28 25 22 21 24 27 28 28 28 29 30 31 31 33 33 33 33
20 21 24 27 28 29 30 30 30 31 31 31 28 28 33 35 35 35 30 30 36 35 29 28 28 27 26 23 23 26 28 27 28 28 28 29 30 32 32 32 33 33
18 19 22 25 26 27 28 28 30 31 31 30 27 27 31 35 36 32 27 31 37 34 29 29 28 27 26 25 25 28 28 26 27 27 26 26 29 31 31 31 33 33
19 20 22 24 26 27 27 29 31 31 31 31 28 27 31 35 35 30 28 34 38 34 32 33 31 28 28 26 26 27 25 24 25 24 23 24 26 28 29 30 31 32
Wind_Direction
208 209 209 208 207 208 212 216 218 220 224 229 238 249 261 273 283 295 309 320 328 334 335 334 333 333 335 334 329 322 317 313 311 309 306 304 306 307 307 307 307 306
212 212 212 211 212 214 216 220 223 226 230 236 243 251 261 270 279 289 300 311 321 327 330 331 331 330 330 329 325 320 316 313 310 307 303 302 303 305 305 307 307 305
215 216 216 216 217 219 221 224 228 231 236 241 246 252 259 266 274 283 292 302 313 321 325 327 328 327 325 323 321 319 316 313 310 305 303 302 304 306 306 307 307 303
219 221 221 221 222 223 225 228 232 235 238 241 245 250 256 262 269 277 286 296 306 314 318 323 325 324 320 317 317 318 316 313 310 306 304 305 308 309 307 306 305 302
222 223 224 226 227 227 228 232 234 236 238 240 243 248 253 258 265 272 281 290 298 307 313 319 322 320 316 312 312 314 313 310 308 305 303 305 307 308 306 308 309 306
225 226 227 229 230 230 231 233 236 238 239 240 243 247 251 256 261 268 278 287 293 300 306 314 318 316 312 308 307 310 310 307 306 303 303 303 304 305 305 309 314 314
228 229 231 232 233 234 234 236 238 239 240 241 243 247 251 256 260 264 274 285 291 294 299 307 313 312 308 303 303 306 307 306 304 302 303 303 305 306 306 310 316 318
232 232 234 236 237 237 239 240 241 241 242 242 245 249 253 257 260 263 273 284 287 288 293 302 308 308 304 300 301 304 306 305 303 302 304 307 309 310 312 315 320 323
238 237 236 239 241 242 243 244 244 244 245 246 248 251 254 257 261 265 273 282 283 282 287 295 302 302 299 298 300 302 303 304 304 304 307 309 312 314 318 321 325 327
239 238 239 241 245 247 246 245 244 245 245 247 250 252 251 252 259 265 270 275 276 278 282 288 296 298 295 296 298 298 300 301 301 302 303 307 312 316 319 321 323 325
238 239 242 244 249 254 253 249 248 248 247 247 250 252 251 253 259 262 263 267 270 273 277 282 290 294 292 293 294 293 293 292 291 294 299 305 311 314 316 317 319 320
240 244 249 252 255 258 260 259 260 264 264 261 258 257 257 262 266 262 258 261 266 267 271 277 284 290 291 290 289 286 284 284 285 291 298 304 307 309 311 314 316 317
245 250 254 260 263 262 263 264 268 272 273 272 270 264 261 264 268 262 254 256 261 264 268 273 277 285 289 287 284 280 278 280 284 291 297 301 304 305 307 311 312 313
249 253 257 264 268 268 269 270 274 278 276 271 270 268 264 264 266 265 259 257 259 262 264 266 272 281 285 282 277 274 274 276 282 291 298 301 304 305 305 308 309 310
249 254 258 263 266 269 272 274 279 283 280 274 271 270 267 264 264 266 264 261 260 260 258 261 270 279 279 274 271 270 270 276 284 292 297 300 302 304 305 306 306 308
249 251 253 256 261 265 270 274 278 278 274 271 270 270 268 264 262 265 265 262 261 259 255 259 268 274 270 266 265 267 270 279 287 291 296 299 301 303 304 305 305 307
251 253 252 252 256 260 264 270 273 272 268 265 265 267 266 263 261 263 263 261 261 257 254 258 264 265 263 262 262 265 273 281 286 291 295 298 300 301 303 304 304 306
256 258 257 255 256 258 260 262 267 270 270 265 262 261 262 261 260 261 260 259 258 256 254 257 258 255 256 259 259 265 274 280 285 290 294 297 300 301 303 304 304 304
259 260 260 260 260 259 258 260 265 271 273 270 265 259 257 258 259 259 259 256 254 253 253 256 255 252 251 255 258 265 273 279 283 289 293 297 299 301 303 303 302 302
263 264 263 263 263 262 262 264 268 272 274 275 271 262 256 256 257 258 258 254 250 249 250 254 254 250 248 251 257 265 273 277 282 287 291 296 299 300 301 300 299 300
268 267 266 266 265 266 267 270 272 274 275 275 271 264 258 256 256 258 257 249 244 245 249 252 249 245 246 251 257 265 271 275 280 287 292 295 298 298 298 297 297 298
269 267 267 267 269 271 272 274 274 274 275 275 270 263 260 257 255 258 255 243 239 244 248 246 242 242 246 250 255 263 268 273 280 287 292 295 297 297 297 298 297 297
272 270 269 269 270 273 275 276 276 274 275 276 271 262 261 259 255 256 252 238 235 241 244 240 238 242 246 249 255 262 268 275 283 289 291 295 297 298 299 299 297 295
277 277 275 274 276 278 278 277 277 275 275 276 270 259 258 259 256 255 248 235 234 239 240 236 235 240 245 249 256 263 270 279 286 290 293 297 299 298 297 296 295 296
276 278 278 279 280 281 279 278 278 277 275 273 267 258 254 254 255 252 241 232 234 236 235 233 231 236 243 248 256 265 273 282 287 289 294 298 298 297 298 298 299 299
275 276 277 280 281 281 279 279 278 276 275 271 265 257 252 250 250 246 236 233 235 233 230 230 229 234 242 249 257 267 277 283 284 288 295 297 298 301 304 305 304 303
Height
3198 3199 3200 3201 3202 3203 3204 3205 3205 3205 3205 3205 3205 3205 3205 3205 3205 3204 3204 3203 3203 3202 3201 3200 3199 3198 3197 3196 3195 3194 3193 3192 3191 3190 3189 3188 3188 3187 3187 3186 3186 3186
3196 3197 3199 3200 3200 3201 3202 3203 3203 3203 3204 3204 3204 3204 3204 3204 3203 3203 3203 3202 3201 3201 3200 3199 3197 3196 3195 3195 3194 3193 3192 3191 3190 3189 3188 3187 3187 3186 3185 3185 3185 3185
3194 3195 3197 3198 3199 3200 3200 3201 3201 3202 3202 3202 3202 3202 3202 3202 3202 3201 3201 3200 3200 3199 3198 3197 3196 3195 3194 3194 3193 3192 3191 3190 3189 3188 3187 3186 3185 3185 3184 3184 3183 3183
3192 3194 3195 3196 3197 3197 3198 3199 3199 3200 3200 3200 3200 3200 3200 3200 3200 3199 3199 3199 3198 3197 3197 3196 3195 3194 3193 3192 3191 3190 3189 3188 3187 3187 3185 3184 3184 3183 3183 3182 3182 3181
3190 3192 3193 3193 3194 3195 3196 3197 3197 3197 3198 3198 3198 3198 3198 3198 3198 3197 3197 3197 3196 3196 3195 3194 3193 3192 3191 3191 3190 3189 3188 3187 3186 3185 3184 3183 3182 3182 3181 3180 3180 3179
3188 3189 3190 3191 3191 3193 3194 3194 3194 3194 3194 3195 3195 3195 3195 3195 3195 3195 3195 3195 3195 3194 3193 3193 3192 3191 3190 3189 3188 3187 3186 3185 3185 3184 3183 3182 3181 3180 3180 3179 3178 3177
3186 3187 3187 3188 3189 3190 3190 3190 3190 3190 3190 3191 3192 3192 3192 3192 3192 3192 3192 3193 3193 3192 3191 3191 3190 3189 3188 3187 3186 3185 3185 3184 3183 3182 3182 3181 3180 3179 3178 3177 3176 3176
3183 3183 3184 3184 3185 3187 3187 3186 3186 3187 3187 3188 3189 3189 3190 3190 3190 3189 3189 3190 3191 3190 3189 3188 3188 3187 3186 3185 3184 3183 3183 3182 3181 3181 3180 3180 3179 3178 3177 3176 3175 3174
3179 3180 3181 3182 3183 3184 3183 3183 3183 3184 3185 3186 3186 3186 3187 3187 3187 3187 3187 3187 3188 3187 3186 3186 3185 3185 3184 3183 3182 3181 3180 3180 3179 3179 3178 3178 3177 3176 3175 3174 3173 3172
3176 3177 3178 3179 3180 3181 3180 3180 3180 3182 3183 3183 3183 3183 3183 3183 3183 3183 3184 3184 3184 3184 3183 3183 3183 3182 3181 3180 3179 3179 3178 3178 3177 3177 3177 3176 3175 3175 3174 3172 3171 3171
3174 3175 3176 3177 3178 3177 3177 3176 3176 3178 3180 3180 3180 3179 3178 3179 3179 3179 3180 3181 3180 3180 3180 3180 3180 3179 3178 3178 3177 3177 3176 3176 3176 3175 3175 3174 3173 3172 3172 3171 3170 3169
3172 3172 3174 3175 3174 3173 3173 3171 3170 3172 3175 3175 3175 3174 3173 3173 3174 3174 3176 3177 3176 3176 3177 3177 3177 3176 3176 3175 3175 3174 3174 3174 3173 3173 3173 3172 3171 3170 3170 3169 3168 3167
3169 3170 3170 3170 3169 3169 3169 3167 3166 3167 3169 3170 3169 3168 3168 3169 3169 3170 3171 3172 3172 3173 3173 3174 3174 3173 3173 3173 3172 3172 3172 3171 3171 3171 3170 3169 3169 3168 3167 3166 3165 3164
3166 3166 3166 3166 3166 3166 3165 3164 3164 3164 3165 3165 3164 3163 3163 3164 3165 3166 3167 3167 3168 3169 3170 3170 3170 3170 3170 3170 3170 3170 3169 3169 3169 3168 3167 3167 3166 3165 3164 3163 3162 3161
3162 3162 3163 3163 3163 3162 3161 3160 3161 3161 3160 3161 3160 3159 3159 3160 3160 3161 3162 3163 3165 3166 3167 3167 3167 3167 3167 3167 3167 3167 3167 3166 3166 3165 3165 3164 3163 3163 3162 3161 3159 3158
3157 3158 3159 3159 3158 3157 3157 3156 3157 3157 3156 3156 3155 3155 3156 3156 3157 3157 3158 3159 3161 3163 3163 3164 3164 3164 3164 3164 3164 3164 3164 3164 3163 3162 3162 3161 3160 3160 3159 3158 3157 3155
3152 3152 3154 3154 3154 3153 3153 3153 3152 3152 3151 3151 3151 3152 3152 3153 3154 3154 3155 3156 3158 3159 3160 3160 3161 3161 3161 3161 3161 3161 3161 3160 3160 3159 3159 3158 3158 3157 3156 3155 3154 3153
3148 3148 3149 3150 3150 3149 3149 3149 3148 3147 3147 3147 3147 3147 3148 3149 3149 3150 3152 3153 3154 3155 3156 3157 3158 3158 3158 3158 3158 3158 3157 3157 3157 3156 3156 3156 3155 3154 3153 3152 3151 3150
3144 3144 3145 3145 3145 3145 3145 3145 3144 3144 3143 3143 3143 3143 3143 3143 3143 3145 3147 3148 3150 3152 3153 3154 3154 3154 3155 3155 3154 3154 3154 3154 3154 3153 3153 3152 3152 3151 3150 3149 3147 3146
3140 3141 3141 3141 3141 3140 3140 3140 3140 3140 3140 3139 3139 3138 3137 3138 3139 3140 3142 3144 3146 3148 3149 3150 3151 3151 3151 3151 3151 3151 3151 3150 3150 3150 3150 3149 3149 3148 3146 3145 3144 3143
3137 3137 3137 3137 3137 3136 3136 3136 3136 3136 3136 3135 3134 3133 3133 3134 3135 3136 3138 3140 3141 3144 3146 3147 3147 3148 3148 3148 3148 3148 3147 3146 3146 3146 3146 3146 3145 3145 3143 3142 3140 3139
3133 3133 3133 3133 3132 3132 3132 3132 3132 3132 3132 3131 3129 3129 3130 3130 3131 3132 3134 3136 3137 3140 3142 3143 3144 3144 3145 3145 3145 3144 3143 3143 3143 3143 3143 3142 3142 3141 3139 3138 3136 3135
3129 3129 3129 3129 3128 3128 3128 3129 3128 3128 3128 3127 3126 3126 3126 3126 3127 3128 3129 3131 3134 3136 3137 3139 3140 3140 3141 3141 3141 3140 3140 3139 3140 3139 3139 3138 3138 3137 3136 3134 3132 3131
3126 3126 3125 3125 3124 3125 3125 3125 3124 3124 3123 3123 3122 3122 3122 3122 3123 3124 3125 3127 3130 3131 3133 3135 3136 3136 3137 3138 3138 3137 3137 3137 3137 3136 3136 3135 3134 3133 3132 3130 3128 3127
3122 3122 3121 3121 3121 3121 3120 3120 3120 3119 3119 3118 3118 3119 3118 3117 3118 3120 3122 3124 3126 3127 3129 3130 3131 3132 3132 3133 3134 3134 3134 3134 3134 3133 3133 3132 3130 3129 3128 3126 3124 3122
3119 3118 3118 3117 3117 3116 3116 3116 3115 3115 3114 3114 3114 3115 3114 3113 3114 3116 3118 3120 3121 3123 3124 3125 3126 3127 3128 3129 3131 3131 3131 3131 3131 3131 3130 3129 3128 3126 3124 3122 3120 3118